Temp
18 18 18 20 23 25 27 29 31 29 29 28 27 28 29 30 30 28 25 23 22 21 23 22 23 23 22 21 20 19 19 18 18 18 18 17 17 17 18 17 17 17 16 16 16 16 16 16 16
16 18 19 22 23 26 28 30 30 29 29 26 26 26 27 28 28 26 24 22 22 21 23 23 23 22 22 21 20 19 19 18 18 18 18 17 17 17 17 16 17 17 16 16 16 16 16 16 16
17 18 21 24 25 25 28 31 30 29 27 26 27 26 27 27 26 26 24 22 22 21 22 23 23 22 22 21 20 19 19 19 18 18 17 17 17 17 16 16 16 16 15 16 15 16 15 16 16
18 19 21 23 25 28 28 30 30 29 26 26 27 27 26 26 25 25 23 22 21 21 20 23 22 22 21 21 20 19 18 18 18 18 18 17 16 16 15 15 16 16 15 16 15 15 15 15 16
19 22 23 24 24 27 29 28 28 27 27 26 26 27 27 25 24 23 23 21 21 20 19 22 22 21 21 20 19 19 18 18 18 17 17 16 16 15 15 15 15 16 15 15 15 15 15 15 15
20 21 23 24 26 28 28 28 27 27 26 26 26 26 26 25 24 23 22 21 20 19 21 22 22 21 21 20 19 18 18 17 17 17 16 16 15 15 15 15 15 14 13 13 14 14 15 15 15
21 23 23 24 26 27 28 26 26 27 26 26 26 26 25 25 22 22 22 21 19 18 20 22 21 21 20 20 19 18 17 17 17 16 16 15 15 15 14 14 14 14 14 13 13 14 14 14 14
20 23 23 24 24 25 27 25 25 25 25 25 25 25 25 23 21 20 21 20 19 18 19 21 21 20 20 19 19 17 17 16 16 16 15 15 14 14 14 14 14 15 15 14 14 13 13 13 13
19 21 22 23 25 26 25 25 25 24 24 24 24 24 24 22 21 20 21 20 18 17 17 20 20 20 20 19 18 17 16 16 15 15 15 14 14 14 14 14 14 14 15 14 14 14 13 13 13
21 21 22 24 26 25 24 24 24 24 24 23 23 23 23 22 22 21 21 20 19 18 17 16 20 19 19 17 17 17 16 16 15 15 15 14 14 14 14 14 14 14 13 14 13 14 14 13 13
20 20 23 24 24 22 23 23 23 23 23 23 23 23 23 23 22 22 21 21 21 20 18 17 15 18 18 17 15 14 14 15 14 14 14 13 14 14 13 13 14 13 13 13 13 12 12 13 12
21 21 22 22 22 22 22 21 22 22 23 22 22 22 23 23 22 22 22 22 21 21 19 17 16 18 17 16 15 15 15 15 15 14 14 14 14 14 14 13 14 13 13 12 12 13 12 12 12
21 21 21 21 21 20 20 21 21 21 21 21 22 22 22 22 22 22 22 22 22 21 20 17 16 17 16 16 17 16 15 15 14 14 14 14 13 13 13 13 12 12 12 12 11 11 12 12 12
20 21 20 20 20 21 20 21 21 21 21 21 21 21 21 21 22 22 22 23 22 22 21 17 15 16 16 19 18 17 16 16 13 13 14 14 13 13 13 13 12 11 12 12 12 11 12 12 12
18 18 19 20 20 21 20 20 21 21 21 21 22 21 21 21 21 21 23 23 23 22 22 18 15 15 16 18 16 17 15 15 13 13 13 13 13 12 13 12 12 12 12 12 12 11 11 12 12
16 17 17 21 22 21 21 19 23 22 22 22 22 22 22 22 21 21 22 23 23 23 22 19 16 14 14 15 14 14 16 13 13 13 13 13 12 12 12 12 12 12 12 12 11 10 11 11 12
17 17 19 20 21 20 20 20 22 22 22 22 21 22 22 22 22 22 22 23 23 23 22 19 15 14 14 14 14 13 14 14 13 13 13 13 12 12 12 12 12 12 12 12 11 11 11 11 12
17 18 19 19 21 20 19 19 20 20 21 21 21 21 22 22 22 23 23 23 23 22 21 19 15 14 14 14 13 14 14 14 12 12 12 12 12 12 11 12 11 11 11 11 11 11 11 11 12
17 17 18 19 20 18 18 19 19 20 21 21 21 21 21 21 22 22 22 23 23 22 20 19 15 14 14 14 16 15 16 12 12 12 12 12 12 12 11 11 11 11 11 11 11 11 10 11 12
15 16 16 18 19 18 18 18 20 21 21 21 22 22 22 21 22 22 22 23 21 20 19 18 15 14 14 16 14 14 14 11 11 12 12 12 12 12 11 11 11 11 11 10 11 10 10 11 12
15 15 16 17 18 18 18 19 20 22 22 22 22 21 21 22 22 22 22 22 21 20 19 18 16 15 13 13 13 12 11 11 10 11 11 11 11 11 11 11 11 11 11 11 10 10 10 11 11
15 17 16 15 15 16 20 17 20 22 22 22 22 21 21 21 21 21 22 22 21 19 18 17 16 15 13 13 13 13 12 11 11 11 11 11 11 11 11 11 10 10 10 10 10 10 10 10 10
15 17 15 15 16 16 16 17 19 22 21 21 21 20 20 21 21 21 21 22 22 20 18 17 15 14 13 13 13 13 12 13 12 11 10 10 11 11 11 10 10 10 10 10 10 10 10 9 11
16 15 15 15 16 14 16 17 19 21 19 18 19 18 18 19 19 20 21 21 22 21 18 16 14 14 13 13 13 13 13 13 12 11 11 11 11 11 11 11 10 10 10 10 10 10 9 10 10
15 14 13 13 13 14 19 18 20 19 18 18 18 17 17 16 16 17 19 20 21 21 17 15 13 14 12 12 13 12 12 11 11 11 10 10 11 12 11 11 9 10 10 10 10 10 10 10 10
14 14 13 13 14 15 17 16 19 19 17 17 17 16 15 14 13 13 16 19 20 20 17 13 12 12 12 12 13 12 11 11 11 10 11 11 11 11 11 11 9 9 9 10 10 10 9 10 10
14 14 16 14 15 14 16 19 19 18 16 17 17 15 14 13 11 10 11 18 18 18 14 12 11 12 12 13 13 11 11 10 10 10 11 10 10 10 10 10 9 9 9 9 9 9 9 10 10
15 15 12 12 12 13 17 19 18 14 15 17 17 15 13 12 9 9 9 14 16 14 12 12 11 12 12 13 12 10 10 10 10 10 10 10 10 10 10 10 9 9 9 9 9 9 9 9 9
13 12 12 13 14 14 15 16 16 15 16 16 15 13 11 9 7 7 9 11 12 11 12 11 10 10 11 11 10 10 10 10 9 10 10 10 10 10 9 9 9 9 9 9 9 9 9 9 9
13 13 13 12 14 15 14 15 16 16 16 15 14 12 9 7 5 6 7 9 10 10 10 10 11 10 10 10 9 9 10 10 9 10 9 9 9 9 9 9 9 9 9 9 9 9 9 10 10
Height
1500 1502 1505 1507 1503 1481 1469 1453 1439 1450 1456 1456 1460 1458 1457 1450 1453 1463 1468 1467 1470 1473 1474 1477 1479 1481 1482 1484 1486 1487 1489 1492 1494 1497 1500 1503 1505 1506 1508 1510 1512 1514 1516 1518 1521 1523 1525 1527 1529
1500 1504 1506 1499 1492 1476 1458 1442 1443 1451 1451 1460 1464 1463 1463 1459 1459 1464 1468 1469 1470 1473 1474 1477 1479 1480 1482 1483 1485 1487 1489 1491 1494 1496 1499 1501 1505 1506 1509 1511 1513 1515 1517 1519 1521 1524 1526 1528 1530
1497 1503 1500 1488 1478 1471 1457 1435 1442 1449 1456 1461 1459 1460 1458 1460 1462 1465 1467 1468 1471 1474 1475 1476 1479 1481 1481 1483 1485 1487 1489 1491 1493 1495 1498 1501 1504 1506 1510 1512 1513 1515 1518 1519 1522 1524 1527 1529 1531
1497 1501 1499 1480 1466 1450 1449 1442 1443 1451 1459 1461 1458 1458 1460 1462 1465 1466 1467 1469 1470 1474 1475 1476 1479 1480 1481 1482 1484 1486 1488 1491 1493 1494 1497 1501 1504 1507 1510 1512 1515 1516 1518 1519 1522 1523 1526 1529 1531
1494 1488 1482 1469 1463 1454 1445 1449 1450 1454 1454 1459 1461 1459 1459 1462 1465 1466 1467 1469 1470 1472 1474 1475 1478 1480 1480 1481 1483 1485 1487 1490 1492 1495 1497 1502 1503 1507 1509 1511 1514 1516 1519 1522 1523 1524 1526 1529 1532
1489 1483 1472 1462 1452 1444 1444 1445 1451 1455 1455 1456 1459 1460 1460 1461 1463 1465 1467 1468 1470 1471 1471 1474 1476 1478 1479 1480 1482 1484 1486 1489 1491 1495 1497 1501 1503 1505 1507 1511 1514 1517 1512 1520 1525 1527 1528 1529 1532
1481 1472 1464 1454 1449 1442 1439 1449 1454 1450 1454 1453 1454 1454 1460 1459 1462 1463 1466 1468 1469 1470 1470 1472 1474 1476 1478 1479 1481 1483 1485 1487 1490 1494 1496 1498 1501 1504 1507 1508 1511 1513 1515 1519 1524 1528 1529 1531 1534
1478 1472 1460 1451 1453 1447 1441 1449 1452 1452 1451 1453 1454 1454 1458 1457 1460 1461 1464 1466 1467 1467 1469 1470 1472 1473 1475 1477 1479 1481 1483 1486 1487 1491 1494 1497 1500 1502 1503 1507 1511 1513 1514 1521 1523 1528 1531 1533 1536
1475 1469 1457 1449 1446 1442 1447 1448 1448 1451 1451 1451 1455 1455 1454 1457 1459 1460 1462 1464 1465 1465 1466 1467 1469 1471 1473 1476 1478 1479 1480 1483 1485 1488 1491 1494 1497 1499 1502 1506 1509 1511 1513 1518 1521 1525 1528 1533 1536
1467 1458 1452 1446 1440 1441 1445 1448 1449 1449 1448 1450 1451 1452 1453 1456 1457 1459 1459 1460 1462 1464 1465 1465 1466 1468 1471 1473 1476 1478 1479 1481 1483 1485 1487 1490 1494 1497 1499 1503 1506 1509 1511 1515 1519 1522 1526 1532 1535
1459 1452 1446 1442 1443 1449 1448 1447 1449 1447 1445 1446 1446 1448 1450 1451 1453 1454 1456 1455 1456 1460 1463 1464 1463 1464 1468 1471 1474 1477 1479 1479 1482 1482 1484 1488 1490 1493 1496 1499 1502 1503 1509 1513 1515 1519 1525 1529 1532
1455 1451 1449 1445 1445 1447 1449 1449 1444 1443 1442 1445 1445 1445 1446 1446 1448 1450 1450 1451 1452 1455 1458 1459 1461 1461 1465 1470 1471 1474 1474 1476 1478 1479 1481 1484 1487 1489 1492 1495 1497 1501 1505 1509 1512 1515 1521 1525 1529
1449 1449 1448 1447 1444 1446 1446 1443 1440 1436 1440 1441 1440 1441 1441 1442 1442 1444 1445 1445 1447 1449 1452 1454 1457 1457 1462 1463 1465 1468 1470 1472 1475 1477 1478 1481 1484 1485 1488 1491 1496 1499 1503 1506 1508 1511 1516 1522 1527
1448 1444 1445 1445 1441 1439 1440 1436 1436 1431 1433 1432 1433 1433 1435 1435 1437 1438 1438 1440 1441 1444 1447 1449 1451 1453 1457 1459 1461 1463 1465 1466 1471 1473 1474 1478 1480 1483 1485 1489 1493 1496 1499 1501 1504 1509 1512 1519 1524
1452 1449 1444 1440 1438 1434 1435 1429 1426 1424 1423 1422 1423 1425 1426 1428 1430 1430 1431 1432 1436 1439 1442 1444 1445 1449 1452 1455 1456 1459 1461 1463 1466 1469 1471 1473 1477 1479 1483 1487 1489 1493 1496 1499 1504 1507 1511 1516 1522
1454 1450 1443 1427 1424 1424 1428 1423 1414 1412 1415 1412 1416 1417 1418 1419 1420 1423 1424 1426 1430 1433 1436 1439 1441 1444 1448 1452 1455 1455 1457 1459 1463 1466 1467 1470 1473 1476 1479 1483 1485 1490 1493 1495 1500 1503 1509 1514 1520
1444 1441 1430 1423 1424 1424 1421 1414 1409 1412 1411 1411 1411 1411 1410 1410 1412 1414 1416 1419 1423 1426 1430 1433 1435 1439 1443 1448 1451 1454 1452 1456 1460 1462 1463 1466 1470 1473 1476 1479 1483 1487 1490 1493 1496 1500 1507 1513 1516
1437 1431 1422 1424 1417 1417 1420 1415 1413 1412 1411 1408 1406 1405 1404 1405 1404 1407 1409 1412 1416 1420 1424 1429 1431 1435 1439 1444 1446 1448 1449 1452 1455 1457 1459 1463 1466 1469 1472 1475 1479 1483 1487 1491 1495 1499 1506 1512 1515
1436 1434 1426 1421 1418 1425 1419 1412 1409 1407 1401 1398 1396 1396 1397 1399 1400 1403 1404 1407 1410 1415 1419 1424 1425 1429 1435 1436 1439 1443 1445 1449 1451 1454 1456 1459 1463 1465 1468 1471 1475 1478 1481 1487 1492 1498 1503 1507 1514
1441 1437 1431 1422 1418 1418 1413 1404 1399 1394 1391 1387 1387 1388 1390 1393 1394 1397 1399 1401 1406 1412 1414 1419 1421 1425 1428 1431 1436 1440 1442 1447 1449 1450 1452 1456 1459 1461 1464 1467 1470 1473 1477 1483 1488 1492 1500 1505 1510
1435 1436 1429 1424 1417 1412 1407 1395 1385 1377 1375 1378 1379 1380 1384 1386 1388 1391 1394 1396 1400 1407 1410 1414 1417 1422 1425 1429 1435 1437 1440 1443 1445 1446 1450 1453 1455 1457 1459 1462 1466 1468 1471 1477 1481 1486 1493 1501 1507
1429 1423 1423 1427 1427 1417 1393 1400 1382 1373 1369 1373 1374 1377 1378 1381 1384 1386 1388 1391 1394 1400 1405 1410 1413 1418 1422 1426 1430 1431 1434 1438 1442 1445 1448 1450 1451 1453 1455 1457 1460 1464 1468 1470 1476 1481 1488 1496 1501
1428 1422 1427 1424 1420 1415 1407 1402 1380 1363 1372 1372 1374 1377 1377 1376 1378 1382 1384 1386 1388 1392 1399 1404 1408 1413 1418 1423 1426 1428 1433 1437 1440 1442 1443 1445 1447 1449 1450 1450 1452 1456 1459 1461 1470 1476 1484 1491 1498
1424 1427 1427 1424 1416 1415 1399 1398 1376 1360 1374 1381 1381 1383 1383 1379 1378 1377 1378 1379 1381 1384 1393 1399 1402 1408 1412 1419 1421 1425 1430 1433 1435 1437 1440 1441 1443 1444 1445 1445 1445 1449 1453 1456 1462 1471 1479 1487 1495
1423 1428 1427 1420 1419 1412 1378 1383 1371 1371 1377 1382 1385 1386 1387 1388 1386 1382 1380 1379 1378 1378 1387 1394 1397 1404 1407 1415 1419 1422 1426 1429 1431 1434 1436 1439 1440 1441 1443 1444 1444 1445 1448 1453 1459 1466 1475 1483 1490
1417 1417 1421 1416 1403 1397 1379 1385 1370 1371 1382 1387 1388 1389 1388 1390 1392 1387 1382 1377 1376 1378 1385 1389 1392 1398 1403 1412 1416 1419 1422 1425 1429 1431 1433 1436 1438 1440 1442 1443 1443 1446 1448 1453 1458 1462 1471 1478 1486
1412 1413 1406 1411 1401 1400 1384 1362 1364 1372 1384 1386 1384 1386 1388 1389 1386 1383 1375 1374 1376 1379 1379 1385 1391 1397 1402 1410 1414 1415 1418 1421 1426 1429 1431 1435 1437 1439 1441 1442 1444 1446 1449 1452 1455 1461 1466 1473 1483
1405 1408 1418 1415 1414 1401 1371 1360 1360 1384 1384 1382 1382 1387 1389 1388 1387 1381 1378 1377 1380 1377 1380 1386 1392 1396 1402 1408 1411 1412 1416 1419 1424 1427 1430 1433 1436 1437 1439 1441 1444 1447 1449 1453 1457 1462 1468 1474 1481
1409 1411 1412 1406 1401 1395 1383 1372 1373 1381 1381 1382 1385 1389 1390 1390 1389 1384 1381 1377 1378 1378 1382 1386 1392 1395 1401 1405 1407 1410 1414 1417 1421 1425 1429 1433 1435 1437 1438 1440 1443 1446 1450 1454 1457 1462 1466 1471 1477
1404 1401 1400 1405 1395 1388 1392 1381 1377 1378 1381 1383 1388 1391 1393 1392 1390 1386 1385 1382 1382 1384 1386 1387 1390 1395 1400 1404 1406 1408 1413 1416 1420 1423 1428 1431 1434 1436 1437 1440 1442 1445 1448 1451 1455 1459 1463 1468 1473
Wind_Speed
15 11 5 9 8 8 17 17 5 5 6 4 4 7 8 17 3 1 5 8 11 14 10 9 7 6 8 11 14 16 15 15 16 15 17 18 19 18 17 17 16 17 17 15 16 16 16 16 15
11 10 11 12 10 15 15 17 9 9 5 2 6 8 12 11 4 4 7 9 13 14 13 10 6 7 9 10 13 15 16 16 16 16 18 21 21 21 19 18 18 19 17 16 16 17 16 16 15
16 15 14 7 16 19 17 14 6 8 2 9 8 7 11 7 3 4 6 14 15 15 13 9 7 7 7 10 11 13 14 15 16 16 18 21 22 23 21 19 21 20 18 17 17 17 16 16 16
15 13 14 14 22 19 21 17 1 7 7 9 8 5 4 6 1 6 11 16 17 15 12 9 9 7 7 10 12 13 14 15 16 17 18 20 21 20 20 20 22 20 19 18 18 16 15 16 16
18 14 12 18 25 25 19 13 7 10 11 6 6 12 10 7 10 7 12 16 17 16 14 11 10 8 8 10 12 13 14 15 16 16 16 17 20 21 22 22 22 21 19 17 15 16 15 15 16
17 21 16 18 24 24 19 14 16 14 16 15 15 14 12 7 6 8 12 16 16 15 16 13 11 9 9 11 12 14 15 16 15 15 15 17 20 22 21 20 19 17 17 15 14 14 11 15 18
20 15 20 25 23 21 14 12 19 21 19 22 23 16 15 6 3 5 12 17 16 15 16 15 14 12 11 12 14 16 17 17 16 14 17 18 20 21 21 23 23 22 15 12 12 13 12 16 19
24 16 28 23 20 25 17 13 22 17 19 20 10 9 15 3 2 7 13 18 17 16 17 18 17 15 13 14 15 17 18 18 18 17 19 20 21 22 25 27 24 18 14 15 13 12 13 16 20
20 16 21 25 23 22 10 14 21 17 20 19 16 19 7 1 2 3 14 18 18 16 17 20 19 17 15 13 15 18 20 20 21 21 21 21 22 24 25 27 25 20 23 22 17 15 15 19 20
20 16 26 22 21 15 8 17 16 15 18 20 21 18 18 10 9 7 15 20 20 19 18 16 21 19 17 14 14 17 19 21 22 23 22 22 24 26 28 28 27 21 27 26 28 24 17 20 23
26 24 21 24 17 15 18 19 22 21 21 23 20 21 21 22 16 12 13 22 23 22 19 18 18 21 19 18 13 12 15 18 21 21 22 20 23 24 26 30 34 26 25 26 25 24 21 26 26
23 26 25 21 24 18 18 24 25 27 25 24 24 24 25 24 22 19 19 19 25 25 24 22 19 22 18 14 15 14 20 21 19 22 22 22 24 24 25 27 26 29 30 27 28 33 27 28 27
22 22 25 27 23 22 26 25 27 31 30 29 29 30 30 27 27 26 24 22 22 28 26 25 23 22 20 22 20 19 20 23 24 24 22 23 23 26 22 24 26 28 29 27 29 31 32 30 25
20 20 19 23 25 22 21 24 28 30 30 30 31 32 29 29 27 28 28 27 24 25 28 25 24 24 24 22 21 22 21 21 24 24 22 24 25 24 24 23 24 29 27 29 28 30 29 30 26
19 22 20 21 25 24 25 25 25 31 31 33 32 30 29 31 31 32 31 29 27 26 26 27 25 24 24 22 20 22 22 21 22 22 21 22 25 22 27 25 27 27 23 27 25 34 28 28 23
15 19 18 18 18 13 18 20 17 11 16 19 24 27 29 31 32 30 32 32 28 26 27 28 25 26 25 20 18 15 17 19 21 20 22 22 22 22 25 28 29 23 21 24 33 35 33 28 26
16 17 19 16 11 11 15 17 14 18 14 16 18 22 23 24 27 29 32 33 31 27 27 30 28 26 25 21 19 17 17 18 22 22 22 23 23 26 26 28 28 23 21 22 22 36 31 27 26
15 18 17 17 12 6 16 20 19 25 26 29 31 28 26 26 23 25 27 31 30 27 26 29 28 25 25 21 20 19 19 16 22 24 21 20 22 24 27 31 31 26 26 29 30 29 28 24 24
18 22 21 20 16 17 22 22 21 21 27 26 30 30 29 26 24 22 27 30 24 23 27 30 29 27 26 30 26 22 21 17 21 23 22 23 24 24 26 27 31 29 36 32 36 36 32 28 28
19 22 23 21 19 15 19 22 20 22 23 30 29 28 28 25 26 26 26 29 22 24 27 29 28 27 33 30 21 20 17 15 15 21 22 25 26 26 26 26 24 32 33 31 39 41 37 32 32
18 19 21 20 18 19 22 24 24 17 19 19 21 27 28 27 27 25 26 30 23 24 26 29 28 27 28 22 20 16 14 14 16 17 18 18 20 22 24 27 29 32 39 32 41 41 41 38 33
18 17 17 15 15 11 12 14 19 17 9 8 8 13 16 24 28 25 26 30 28 25 25 27 28 28 27 24 22 20 18 16 15 15 15 16 22 20 23 25 28 32 35 40 39 43 45 39 36
17 13 10 14 15 16 18 11 16 12 8 4 9 12 14 16 20 23 28 28 31 28 26 27 28 28 28 26 23 20 17 13 14 14 17 16 20 19 22 25 32 35 36 47 46 48 49 41 39
13 10 13 15 13 13 19 15 12 4 8 6 7 7 13 13 11 11 14 19 27 30 27 27 28 29 30 28 23 20 18 15 14 15 18 18 15 15 16 16 16 31 34 45 47 46 51 41 37
14 12 7 8 7 10 5 6 12 9 6 7 9 12 9 12 14 13 11 18 23 25 26 27 30 33 30 28 23 20 17 16 15 15 19 18 14 9 6 5 12 27 28 37 40 46 39 46 36
17 16 8 9 8 9 0 8 5 12 12 7 8 8 11 10 10 12 15 12 18 20 25 30 33 36 33 27 23 20 17 14 14 17 18 17 14 10 9 7 5 21 30 26 37 43 36 41 37
19 15 17 17 20 13 9 13 15 12 8 5 7 14 15 15 17 16 20 7 12 19 28 30 32 35 31 26 23 20 18 16 16 16 15 14 13 12 10 11 8 12 24 28 34 40 40 37 34
18 4 8 8 6 10 14 17 9 8 5 6 13 13 16 17 18 17 18 9 8 17 18 21 34 28 29 24 22 19 18 16 15 16 16 14 11 11 12 12 14 14 16 22 26 30 29 29 25
12 11 9 6 9 5 7 2 12 8 7 10 13 14 16 16 17 18 16 11 3 11 11 22 28 26 28 23 21 19 20 16 16 17 16 15 14 14 14 15 15 16 17 22 24 25 25 27 33
10 13 15 8 12 6 4 2 5 8 5 6 7 11 13 14 14 15 14 12 8 6 11 21 26 26 26 19 19 20 21 19 18 18 15 12 11 10 10 15 14 15 18 21 28 29 31 30 31
Wind_Direction
217 219 225 237 248 229 254 246 241 257 231 199 314 269 286 297 274 345 116 124 145 155 172 169 170 184 203 207 207 211 217 222 220 215 218 224 218 209 202 195 190 183 180 188 187 186 185 181 173
207 213 217 255 243 251 245 231 200 237 243 90 259 251 254 259 269 89 146 140 149 153 155 163 190 212 220 222 214 210 213 218 224 224 222 223 221 216 208 198 196 191 190 191 183 180 181 177 174
173 205 232 228 235 249 262 266 220 262 50 254 244 225 244 241 220 245 163 151 156 156 169 183 199 219 235 237 225 214 211 214 218 222 225 221 222 219 210 200 200 196 185 187 175 176 182 176 182
181 203 248 256 247 237 246 272 165 238 210 242 244 254 195 253 185 217 167 159 159 164 167 177 197 219 236 240 230 221 216 215 217 217 221 225 222 218 212 208 203 197 191 184 184 183 188 186 190
199 218 233 242 245 257 263 241 318 243 232 254 215 259 237 208 221 202 181 171 169 171 175 181 193 215 226 232 230 224 220 217 217 220 225 222 217 217 214 211 204 202 196 187 189 188 183 192 194
215 231 239 245 247 246 246 253 236 235 251 231 236 257 260 239 214 213 192 184 181 181 191 193 193 204 217 227 229 224 222 219 219 217 218 218 216 218 217 209 202 204 204 189 195 202 197 195 185
232 224 245 255 263 273 275 209 252 262 251 256 253 228 251 206 174 207 205 196 191 188 197 206 203 205 211 220 223 221 218 219 219 211 215 217 217 215 211 199 197 202 202 207 203 207 209 197 188
232 253 262 253 259 261 260 225 260 262 255 258 251 232 239 118 32 213 203 198 199 195 201 212 213 211 217 214 218 219 218 217 218 210 213 216 215 213 208 205 203 205 211 209 192 201 208 203 193
224 252 250 254 259 263 244 265 253 243 265 255 237 238 253 266 313 232 202 201 203 202 206 218 216 216 219 219 218 220 220 217 218 218 217 216 216 212 212 212 206 209 226 232 226 220 210 212 199
225 232 246 263 285 305 250 259 256 239 234 239 254 239 244 250 248 244 216 209 208 208 209 215 221 218 219 216 224 220 225 224 221 222 223 214 211 214 215 215 203 235 240 227 219 224 205 208 201
223 242 258 264 285 266 282 266 260 259 257 262 253 237 241 228 233 235 231 221 216 215 215 209 222 215 216 216 204 214 223 225 226 222 224 210 218 215 216 212 222 235 219 214 210 206 212 203 202
244 248 264 270 273 271 249 262 263 262 265 262 259 253 250 245 235 240 234 227 222 216 217 213 217 216 209 208 213 214 216 221 224 222 221 214 215 216 218 221 223 204 210 214 218 221 204 203 196
244 260 264 272 260 260 267 261 265 264 267 263 257 254 254 252 241 239 236 234 226 222 216 217 209 219 205 212 226 221 225 228 231 233 226 223 219 221 217 215 204 212 214 218 222 215 201 197 186
257 272 266 272 269 261 262 265 262 262 261 258 254 251 250 246 243 240 234 232 226 222 216 215 211 214 214 226 232 236 239 243 235 231 229 227 224 217 219 210 213 207 220 220 226 200 197 190 184
282 276 270 258 256 254 256 260 259 264 259 254 252 249 248 247 242 238 234 229 228 224 218 213 210 206 215 219 231 236 239 244 234 231 230 225 218 215 218 200 207 212 227 215 206 201 202 191 174
265 270 271 263 239 256 233 261 278 263 272 247 249 252 250 245 240 237 231 229 228 228 222 209 206 205 205 203 204 241 240 231 236 231 223 224 217 218 218 214 213 217 230 225 211 210 193 190 172
241 259 259 263 245 255 237 260 273 298 284 265 264 265 257 250 241 235 231 225 226 227 220 206 202 203 202 202 204 204 241 224 229 227 226 224 221 220 217 216 218 226 235 213 189 200 182 191 180
250 254 249 258 260 240 257 266 283 279 274 269 269 262 257 253 246 237 230 224 224 223 213 203 200 200 199 198 210 214 231 229 225 227 220 224 225 225 229 230 227 237 239 209 196 200 181 194 181
269 278 282 281 288 278 273 272 271 269 259 260 258 255 251 251 249 238 230 223 218 216 203 199 197 196 194 201 212 215 228 224 225 223 223 226 230 233 230 228 236 237 217 214 206 195 187 189 187
254 264 266 275 278 264 273 273 276 266 261 259 258 257 254 248 244 232 230 222 208 210 200 197 199 194 204 209 207 210 212 214 222 225 227 232 234 235 234 229 229 221 227 217 208 196 193 195 186
250 258 273 281 294 287 274 275 264 243 247 254 261 254 252 246 242 235 228 224 203 209 201 200 198 194 202 191 191 193 194 209 218 225 228 230 236 238 241 237 234 220 225 225 213 199 192 190 190
260 264 255 272 277 275 320 294 298 293 263 268 256 252 254 246 243 237 233 227 208 207 205 201 197 195 199 191 194 196 199 204 215 214 213 214 223 229 234 237 234 224 229 227 223 198 194 194 190
263 279 269 266 269 278 274 266 272 221 228 40 353 357 319 239 237 235 233 234 230 208 204 200 195 193 195 192 193 193 194 203 208 206 210 228 226 236 241 240 237 234 225 227 227 202 199 198 195
242 265 252 262 261 264 264 244 267 212 67 18 4 354 347 347 326 269 260 252 228 202 199 197 194 190 195 193 189 190 194 192 198 213 207 216 219 229 235 227 231 233 225 212 218 210 196 197 199
215 230 251 223 221 248 282 208 237 105 77 33 14 11 11 351 342 324 280 253 239 189 192 195 194 189 186 191 186 190 191 194 195 208 209 207 215 218 220 239 232 229 230 214 207 207 195 201 198
207 214 232 256 260 292 138 216 186 103 77 35 22 10 6 357 342 321 329 267 223 202 197 193 191 185 186 183 184 189 188 190 193 205 206 209 221 236 231 259 230 224 222 219 214 202 202 196 201
234 230 243 265 279 277 255 284 162 114 83 18 24 15 10 1 358 348 342 284 215 196 195 196 193 183 186 179 184 189 182 188 186 194 200 205 216 229 226 231 235 217 219 218 216 204 185 193 199
238 274 209 217 244 235 243 228 152 114 44 359 29 15 10 8 3 358 353 354 216 189 187 202 189 182 182 179 184 188 182 185 186 184 189 202 215 233 214 212 202 213 200 199 194 197 195 192 200
203 219 222 253 259 280 289 122 100 103 27 11 22 20 19 11 8 3 358 18 124 167 205 195 184 181 176 181 179 178 175 189 184 187 198 207 213 220 221 211 219 202 205 206 205 207 216 215 216
256 237 227 229 216 238 288 344 85 42 23 29 16 14 13 21 15 15 11 39 69 156 181 178 189 187 179 175 178 179 175 177 188 177 191 189 189 206 197 205 205 213 215 228 217 220 223 226 227